Location: Hastringsfeld
(50.9620°N, 10.4787°E)
Time: 03:55:17
(UTC+00:00)

Cosmos 1655 Rocket - Pass Details

Date: 26 September 2023
Orbit: 969 x 1006 km, 83.0° (Epoch: 29 November)

Event Time Altitude Azimuth Distance (km) Brightness Sun altitude
Exits shadow 02:45:05 - 174° (S) 3,159 6.4 -22.7°
Reaches altitude 10° 02:46:08 10° 173° (S) 2,773 6.2 -22.6°
Maximum altitude 02:52:25 63° 94° (E) 1,119 4.5 -21.7°
Drops below altitude 10° 02:58:44 10° 15° (NNE) 2,795 6.9 -20.8°
Sets 03:01:18 0° 12° (NNE) 3,747 7.6 -20.5°
